| time (UTC) | temp F | wind direction | speed MPH | gust MPH | rain 1hr in | rain 24hr in | rain mn in | humidity % | barometer mb |
| 20260507184836 | 54 | 179 | 9.0 | 16.0 | 0.79 | 3.07 | 0.61 | 95 | 1001.5 |
| 20260507183328 | 55 | 188 | 7.0 | 17.0 | 0.83 | 2.83 | 0.57 | 95 | 1002.6 |
| 20260507181846 | 55 | 183 | 7.0 | 13.0 | 1.14 | 2.68 | 0.54 | 95 | 1002.3 |
| 20260507180359 | 56 | 184 | 7.0 | 19.0 | 1.50 | 2.56 | 0.51 | 95 | 1002.7 |
| 20260507174837 | 56 | 189 | 5.0 | 15.0 | 1.81 | 2.28 | 0.46 | 94 | 1002.9 |
| 20260507173330 | 56 | 179 | 7.0 | 12.0 | 1.97 | 2.01 | 0.40 | 94 | 1002.8 |
| 20260507171820 | 56 | 219 | 6.0 | 16.0 | 1.50 | 1.50 | 0.30 | 94 | 1003.5 |
| 20260507170343 | 57 | 217 | 9.0 | 16.0 | 1.06 | 1.06 | 0.21 | 93 | 1003.6 |
| 20260507164849 | 57 | 228 | 8.0 | 18.0 | 0.47 | 0.47 | 0.09 | 93 | 1003.5 |
| 20260507163332 | 57 | 180 | 18.0 | 29.0 | 0.04 | 0.04 | 0.01 | 91 | 1002.7 |
| 20260507161841 | 58 | 183 | 13.0 | 32.0 | 0.00 | 0.00 | 0.00 | 91 | 1002.8 |
| 20260507160342 | 58 | 175 | 17.0 | 31.0 | 0.00 | 0.00 | 0.00 | 90 | 1002.9 |
| 20260507154831 | 58 | 164 | 14.0 | 26.0 | 0.00 | 0.00 | 0.00 | 89 | 1003.4 |
| 20260507153355 | 58 | 179 | 16.0 | 29.0 | 0.00 | 0.00 | 0.00 | 88 | 1003.8 |
| 20260507151824 | 58 | 163 | 14.0 | 30.0 | 0.00 | 0.00 | 0.00 | 88 | 1004.2 |
| 20260507150348 | 58 | 168 | 18.0 | 29.0 | 0.00 | 0.00 | 0.00 | 88 | 1004.1 |
| 20260507144836 | 58 | 165 | 18.0 | 30.0 | 0.00 | 0.00 | 0.00 | 88 | 1004.8 |
| 20260507143329 | 57 | 200 | 16.0 | 32.0 | 0.00 | 0.00 | 0.00 | 88 | 1005.5 |
| 20260507141827 | 57 | 175 | 14.0 | 30.0 | 0.00 | 0.00 | 0.00 | 89 | 1005.3 |
| 20260507140342 | 57 | 180 | 16.0 | 30.0 | 0.00 | 0.00 | 0.00 | 88 | 1005.5 |
| 20260507134839 | 57 | 145 | 16.0 | 29.0 | 0.00 | 0.00 | 0.00 | 86 | 1005.9 |
| 20260507133334 | 59 | 179 | 19.0 | 36.0 | 0.00 | 0.00 | 0.00 | 83 | 1006.1 |
| 20260507131824 | 59 | 184 | 16.0 | 32.0 | 0.00 | 0.00 | 0.00 | 83 | 1006.0 |
| 20260507130328 | 58 | 182 | 16.0 | 27.0 | 0.00 | 0.00 | 0.00 | 84 | 1006.3 |
| 20260507124838 | 58 | 186 | 13.0 | 30.0 | 0.00 | 0.00 | 0.00 | 85 | 1006.4 |
| 20260507123332 | 58 | 174 | 15.0 | 25.0 | 0.00 | 0.00 | 0.00 | 85 | 1006.8 |
| 20260507121830 | 58 | 171 | 13.0 | 28.0 | 0.00 | 0.00 | 0.00 | 85 | 1006.9 |
| 20260507120323 | 59 | 175 | 12.0 | 38.0 | 0.00 | 0.00 | 0.00 | 84 | 1006.8 |
| 20260507114842 | 59 | 176 | 14.0 | 35.0 | 0.00 | 0.00 | 0.00 | 85 | 1006.6 |
| 20260507113354 | 58 | 175 | 22.0 | 38.0 | 0.00 | 0.00 | 0.00 | 84 | 1006.2 |
| 20260507111819 | 58 | 190 | 16.0 | 34.0 | 0.00 | 0.00 | 0.00 | 86 | 1006.8 |
| 20260507110344 | 57 | 196 | 18.0 | 31.0 | 0.00 | 0.00 | 0.00 | 88 | 1007.0 |
| 20260507104833 | 57 | 192 | 19.0 | 29.0 | 0.00 | 0.00 | 0.00 | 89 | 1006.8 |
| 20260507103346 | 56 | 209 | 13.0 | 28.0 | 0.00 | 0.00 | 0.00 | 89 | 1007.1 |
| 20260507101824 | 56 | 179 | 18.0 | 30.0 | 0.00 | 0.00 | 0.00 | 90 | 1007.3 |
| 20260507100333 | 56 | 178 | 16.0 | 30.0 | 0.00 | 0.00 | 0.00 | 90 | 1007.3 |
| 20260507094822 | 56 | 192 | 18.0 | 38.0 | 0.00 | 0.00 | 0.00 | 91 | 1007.4 |
| 20260507093325 | 55 | 161 | 19.0 | 34.0 | 0.00 | 0.00 | 0.00 | 92 | 1007.5 |
| 20260507091835 | 56 | 204 | 25.0 | 36.0 | 0.00 | 0.00 | 0.00 | 90 | 1007.6 |
| 20260507090338 | 55 | 188 | 11.0 | 23.0 | 0.00 | 0.00 | 0.00 | 88 | 1008.1 |
| 20260507084848 | 55 | 176 | 8.0 | 16.0 | 0.00 | 0.00 | 0.00 | 87 | 1007.9 |
| 20260507083351 | 54 | 180 | 7.0 | 16.0 | 0.00 | 0.00 | 0.00 | 87 | 1008.6 |
| 20260507081820 | 54 | 185 | 6.0 | 15.0 | 0.00 | 0.00 | 0.00 | 86 | 1009.4 |
| 20260507080343 | 54 | 181 | 9.0 | 20.0 | 0.00 | 0.00 | 0.00 | 87 | 1009.8 |
| 20260507074832 | 53 | 192 | 6.0 | 10.0 | 0.00 | 0.00 | 0.00 | 87 | 1009.9 |
| 20260507073327 | 53 | 206 | 3.0 | 15.0 | 0.00 | 0.00 | 0.00 | 88 | 1010.0 |
| 20260507071845 | 52 | 201 | 6.0 | 15.0 | 0.00 | 0.00 | 0.00 | 88 | 1010.0 |
| 20260507070338 | 52 | 190 | 12.0 | 18.0 | 0.00 | 0.00 | 0.00 | 89 | 1009.8 |
| 20260507064837 | 52 | 199 | 7.0 | 14.0 | 0.00 | 0.00 | 0.00 | 89 | 1010.8 |
| 20260507063329 | 52 | 200 | 6.0 | 15.0 | 0.00 | 0.00 | 0.00 | 88 | 1011.3 |
| 20260507061848 | 52 | 202 | 8.0 | 16.0 | 0.00 | 0.00 | 0.00 | 87 | 1011.6 |
| 20260507060409 | 53 | 196 | 8.0 | 19.0 | 0.00 | 0.00 | 0.00 | 87 | 1011.5 |
| 20260507054838 | 53 | 187 | 12.0 | 21.0 | 0.00 | 0.00 | 0.00 | 87 | 1011.6 |
| 20260507053333 | 52 | 188 | 8.0 | 19.0 | 0.00 | 0.00 | 0.00 | 87 | 1011.6 |
| 20260507051823 | 52 | 161 | 8.0 | 19.0 | 0.00 | 0.00 | 0.00 | 87 | 1011.8 |
| 20260507050325 | 51 | 196 | 8.0 | 16.0 | 0.00 | 0.00 | 0.00 | 87 | 1012.1 |
| 20260507044831 | 51 | 183 | 8.0 | 13.0 | 0.00 | 0.00 | 0.00 | 87 | 1012.9 |
| 20260507043354 | 51 | 182 | 6.0 | 11.0 | 0.00 | 0.00 | 0.00 | 87 | 1013.2 |
| 20260507041823 | 51 | 197 | 5.0 | 12.0 | 0.00 | 0.00 | 0.00 | 87 | 1013.5 |
| 20260507040404 | 52 | 198 | 6.0 | 12.0 | 0.00 | 0.00 | 0.00 | 86 | 1013.9 |
| 20260507034833 | 52 | 197 | 6.0 | 16.0 | 0.00 | 0.00 | 0.00 | 85 | 1014.1 |
| 20260507033326 | 52 | 179 | 6.0 | 18.0 | 0.00 | 0.00 | 0.00 | 85 | 1014.3 |
| 20260507031845 | 53 | 190 | 9.0 | 16.0 | 0.00 | 0.00 | 0.00 | 85 | 1014.7 |
| 20260507030335 | 53 | 192 | 6.0 | 14.0 | 0.00 | 0.00 | 0.00 | 85 | 1015.0 |
| 20260507024825 | 53 | 198 | 6.0 | 12.0 | 0.00 | 0.00 | 0.00 | 85 | 1015.2 |
| 20260507023349 | 53 | 199 | 6.0 | 14.0 | 0.00 | 0.00 | 0.00 | 84 | 1015.3 |
| 20260507021859 | 53 | 187 | 8.0 | 14.0 | 0.00 | 0.00 | 0.00 | 84 | 1015.4 |
| 20260507020340 | 53 | 188 | 3.0 | 12.0 | 0.00 | 0.00 | 0.00 | 84 | 1015.5 |
| 20260507014829 | 53 | 206 | 7.0 | 17.0 | 0.00 | 0.00 | 0.00 | 83 | 1015.3 |
| 20260507013323 | 54 | 195 | 7.0 | 16.0 | 0.00 | 0.00 | 0.00 | 82 | 1015.4 |
| 20260507011842 | 54 | 209 | 8.0 | 21.0 | 0.00 | 0.00 | 0.00 | 82 | 1015.3 |
| 20260507010335 | 55 | 180 | 9.0 | 20.0 | 0.00 | 0.00 | 0.00 | 80 | 1015.2 |
| 20260507004825 | 55 | 206 | 11.0 | 21.0 | 0.00 | 0.00 | 0.00 | 79 | 1015.1 |
| 20260507003348 | 56 | 188 | 11.0 | 22.0 | 0.00 | 0.00 | 0.00 | 78 | 1014.8 |
| 20260507001836 | 57 | 186 | 8.0 | 25.0 | 0.00 | 0.00 | 0.00 | 77 | 1014.9 |
| 20260507000329 | 58 | 183 | 12.0 | 22.0 | 0.00 | 0.00 | 0.00 | 75 | 1015.0 |
| 20260506234847 | 59 | 173 | 14.0 | 28.0 | 0.00 | 0.00 | 0.00 | 73 | 1014.8 |
| 20260506233348 | 60 | 200 | 18.0 | 30.0 | 0.00 | 0.00 | 0.00 | 72 | 1014.8 |
| 20260506231838 | 61 | 196 | 14.0 | 35.0 | 0.00 | 0.00 | 0.00 | 71 | 1014.7 |
| 20260506230331 | 61 | 198 | 14.0 | 28.0 | 0.00 | 0.00 | 0.00 | 70 | 1014.4 |
| 20260506224820 | 62 | 202 | 10.0 | 30.0 | 0.00 | 0.00 | 0.00 | 69 | 1014.3 |
| 20260506223342 | 62 | 184 | 15.0 | 30.0 | 0.00 | 0.00 | 0.00 | 69 | 1014.5 |
| 20260506221831 | 63 | 212 | 12.0 | 38.0 | 0.00 | 0.00 | 0.00 | 68 | 1014.2 |
| 20260506220335 | 64 | 213 | 18.0 | 29.0 | 0.00 | 0.00 | 0.00 | 67 | 1014.0 |
| 20260506214824 | 64 | 191 | 15.0 | 32.0 | 0.00 | 0.00 | 0.00 | 66 | 1014.0 |
| 20260506213346 | 65 | 206 | 14.0 | 29.0 | 0.00 | 0.00 | 0.00 | 65 | 1014.0 |
| 20260506211836 | 65 | 191 | 16.0 | 31.0 | 0.00 | 0.00 | 0.00 | 65 | 1014.1 |
| 20260506210330 | 66 | 214 | 15.0 | 30.0 | 0.00 | 0.00 | 0.00 | 63 | 1014.3 |
| 20260506204843 | 66 | 219 | 18.0 | 36.0 | 0.00 | 0.00 | 0.00 | 59 | 1014.1 |
| 20260506203336 | 66 | 202 | 16.0 | 31.0 | 0.00 | 0.00 | 0.00 | 63 | 1014.1 |
| 20260506201825 | 67 | 206 | 18.0 | 30.0 | 0.00 | 0.00 | 0.00 | 61 | 1014.0 |
| 20260506200328 | 67 | 177 | 15.0 | 35.0 | 0.00 | 0.00 | 0.00 | 60 | 1014.4 |
| 20260506194833 | 68 | 201 | 19.0 | 31.0 | 0.00 | 0.00 | 0.00 | 58 | 1014.3 |
| 20260506193336 | 69 | 185 | 18.0 | 31.0 | 0.00 | 0.00 | 0.00 | 58 | 1014.3 |
| 20260506191825 | 70 | 178 | 16.0 | 32.0 | 0.00 | 0.00 | 0.00 | 58 | 1014.1 |
| 20260506190406 | 69 | 193 | 19.0 | 35.0 | 0.00 | 0.00 | 0.00 | 56 | 1014.3 |